Back to catalog

COSMOS 375 DEB

AliveLEO
NORAD 4724·DEBRIS·🇷🇺 Russia

Launched Oct 30, 1970 from Baikonur Cosmodrome

Loading…

Next Passes (next 24 hours)

TLE

FreshSource: Space-Track

Epoch: Sep 14, 2026, 11:51 UTC

1 04724U 70091V   26257.49412118  .00001510  00000-0  26631-3 0  9994
2 04724  62.7768 228.8901 0400092 174.6351 185.9203 14.30461356771946

Track COSMOS 375 DEB in real time with AllMySat

Download on the App Store